Regional Weather Roundup
Issued by NWS

Home | Current Version | Previous Version | Text Only | Print | Product List | Glossary On
Versions: 1 2 3 4 5 6 7 8 9 10 11 12 13 14 15 16 17 18 19 20 21 22 23 24 25 26 27 28 29 30 31 32 33 34 35 36 37 38 39 40 41 42 43 44 45 46 47 48 49 50
000
ASUS44 KFWD 310015
RWRTX
NORTH TEXAS HOURLY WEATHER ROUNDUP
NATIONAL WEATHER SERVICE FORT WORTH TX
700 PM CDT THU JUL 30 2015

NOTE: "FAIR" INDICATES FEW OR NO CLOUDS BELOW 12,000 FEET WITH NO
SIGNIFICANT WEATHER AND/OR OBSTRUCTIONS TO VISIBILITY.

TXZ118-119-310100-
DALLAS/FORT WORTH METROPLEX

CITY           SKY/WX    TMP DP  RH WIND       PRES   REMARKS
DFW AIRPORT    MOSUNNY  101  61  26 N3        29.98S HX 102
6HR MIN TEMP:  98; 6HR MAX TEMP: 104;

DALLAS LOVE    MOSUNNY   99  63  30 E7        29.98S HX 101
6HR MIN TEMP:  99; 6HR MAX TEMP: 103;

FTW MEACHAM    SUNNY    102  61  25 NE8       29.98F HX 103
6HR MIN TEMP:  97; 6HR MAX TEMP: 104;

DAL-EXECUTIVE  SUNNY    100  61  27 NE8       29.98S HX 101
6HR MIN TEMP:  98; 6HR MAX TEMP: 103;

FTW-ALLIANCE   MOSUNNY   99  62  29 NE8       29.99F HX 100
6HR MIN TEMP:  97; 6HR MAX TEMP: 102;

FTW-NAS-JRB    SUNNY    102  61  25 NE5       29.98F HX 103
6HR MIN TEMP:  99; 6HR MAX TEMP: 104;

FTW-SPINKS     MOSUNNY  100  59  25 E8        30.00F HX 100
ARLINGTON      SUNNY    102  60  25 E5        29.98F HX 103
6HR MIN TEMP:  99; 6HR MAX TEMP: 104;

GRAND PRAIRIE  SUNNY     99  64  32 NE6       29.99F HX 101
ADDISON        MOSUNNY   99  61  28 NE7       30.00S HX  99
MESQUITE       SUNNY     99  61  28 N6        29.99S HX  99
LANCASTER      SUNNY     99  59  26 NE8       29.99S HX  99
6HR MIN TEMP:  98; 6HR MAX TEMP: 102;

$$

TXZ091>094-102>105-117-120-121-131>134-310100-
NORTH CENTRAL TEXAS

CITY           SKY/WX    TMP DP  RH WIND       PRES   REMARKS
SHRMAN/DENISON SUNNY     97  65  35 NE7       30.02F HX 100
6HR MIN TEMP:  96; 6HR MAX TEMP: 100;

GAINESVILLE    SUNNY     96  66  36 NE6       30.04S HX  99
6HR MIN TEMP:  95; 6HR MAX TEMP:  99;

BOWIE          SUNNY     96  62  32 E3        30.02F HX  97
6HR MIN TEMP:  94; 6HR MAX TEMP:  99;

DECATUR        SUNNY     98  62  30 NE8       30.03S HX  98
6HR MIN TEMP:  94; 6HR MAX TEMP: 100;

DENTON         SUNNY     99  63  30 NE8       29.99F HX 101
6HR MIN TEMP:  97; 6HR MAX TEMP: 101;

MCKINNEY       SUNNY     98  65  33 SE3       29.99F HX 101
6HR MIN TEMP:  97; 6HR MAX TEMP: 101;

GREENVILLE     SUNNY    100  61  27 N3        30.00S HX 101
ROCKWALL       SUNNY     99  64  31 N7        29.98S HX 101
6HR MIN TEMP:  97; 6HR MAX TEMP: 100;

TERRELL        SUNNY    100  65  31 E8        29.99S HX 103
6HR MIN TEMP:  99; 6HR MAX TEMP: 103; 6HR PCP: TRACE;

WAXAHACHIE     SUNNY     99  65  33 NE7       30.00S HX 102
6HR MIN TEMP:  98; 6HR MAX TEMP: 102;

CLEBURNE       SUNNY    100  63  28 E7        30.01S HX 102
GRANBURY       MOSUNNY  101  59  25 SE3       30.00S HX 101
6HR MIN TEMP:  96; 6HR MAX TEMP: 102;

$$

TXZ083>090-098>101-113>116-127>130-139>142-154-155-310100-
WESTERN NORTH TEXAS

CITY           SKY/WX    TMP DP  RH WIND       PRES   REMARKS
WICHITA FALLS  MOSUNNY   99  63  30 E12       30.01S HX 101
6HR MIN TEMP:  97; 6HR MAX TEMP: 102;

WF-KICKAPOO    SUNNY    100  61  27 E7        30.02S HX 101
6HR MIN TEMP:  98; 6HR MAX TEMP: 102;

VERNON         MOSUNNY   96  60  30 NE10G20   30.05S HX  96
6HR MIN TEMP:  89; 6HR MAX TEMP: 100;

ABILENE        SUNNY     96  63  33 E13       30.05F HX  97
6HR MIN TEMP:  87; 6HR MAX TEMP: 101; 6HR PCP:  0.04;

ABILENE-DYESS  SUNNY     97  65  35 E13       30.03F HX  99
6HR MIN TEMP:  96; 6HR MAX TEMP: 100;

BRECKENRIDGE   SUNNY     98  61  28 SE8       30.02F HX  99
6HR MIN TEMP:  96; 6HR MAX TEMP: 101;

GRAHAM         MOSUNNY   95  69  42 SE6       30.00S HX 100
6HR MIN TEMP:  93; 6HR MAX TEMP: 100;

MINERAL WELLS  MOSUNNY   99  62  29 NE5       30.00S HX 100
6HR MIN TEMP:  96; 6HR MAX TEMP: 101;

STEPHENVILLE   MOSUNNY   98  59  27 CALM      30.05S HX  97
6HR MIN TEMP:  94; 6HR MAX TEMP:  99;

COMANCHE       SUNNY     96  65  35 NE5       30.02F HX  98
6HR MIN TEMP:  93; 6HR MAX TEMP:  99;

BROWNWOOD      LGT RAIN  95  61  31 NE8       30.02F HX  95
COLEMAN        SUNNY     96  65  35 E6        30.05S HX  98
6HR MIN TEMP:  93; 6HR MAX TEMP:  98;

BRADY          MOSUNNY   99  61  28 E3        30.03F HX  99
$$

TXZ143>147-156>162-174-175-310100-
CENTRAL TEXAS

CITY           SKY/WX    TMP DP  RH WIND       PRES   REMARKS
WACO           SUNNY    101  63  28 NE5       29.97S HX 103
6HR MIN TEMP:  98; 6HR MAX TEMP: 103;

WACO-TSTC      SUNNY     99  63  30 CALM      29.97S HX 100
HILLSBORO      SUNNY     99  60  28 N6        29.99R HX  99
6HR MIN TEMP:  97; 6HR MAX TEMP: 101;

CORSICANA      SUNNY    101  63  28 N3        29.99R HX 103
6HR MIN TEMP:  98; 6HR MAX TEMP: 104;

MEXIA          SUNNY     98  65  33 NE6       29.97S HX 102
6HR MIN TEMP:  96; 6HR MAX TEMP: 101;

HEARNE         SUNNY    100  65  32 CALM      29.97R HX 103
6HR MIN TEMP:  97; 6HR MAX TEMP: 102;

CAMERON        SUNNY     99  66  34 SE3       29.96S HX 103
6HR MIN TEMP:  98; 6HR MAX TEMP: 102;

TEMPLE         SUNNY     99  61  28 NE7       29.98S HX  99
6HR MIN TEMP:  99; 6HR MAX TEMP: 102;

KILLEEN        SUNNY     97  60  29 E6        29.98F HX  97
6HR MIN TEMP:  96; 6HR MAX TEMP: 100;

KILLEEN-SKYLRK SUNNY     99  63  30 SE6       29.98S HX 100
6HR MIN TEMP:  97; 6HR MAX TEMP: 100;

FORT HOOD      SUNNY     98  62  30 SE7       29.98S HX  99
6HR MIN TEMP:  96; 6HR MAX TEMP: 100;

GATESVILLE     SUNNY     99  63  30 CALM      30.01S HX 100
HAMILTON       SUNNY     98  59  27 E5        30.03S HX  97
6HR MIN TEMP:  95; 6HR MAX TEMP: 100;

LAMPASAS       SUNNY     98  61  29 E5        30.00F HX  99
6HR MIN TEMP:  96; 6HR MAX TEMP: 101;

$$

TXZ095>097-106>112-122>126-135>138-148>153-164>167-310100-
EAST TEXAS

CITY           SKY/WX    TMP DP  RH WIND       PRES   REMARKS
PARIS          MOSUNNY   88  70  55 NE16      30.04S HX  92
6HR MIN TEMP:  88; 6HR MAX TEMP: 100;

SULPHUR SPRNGS PTSUNNY   96  67  39 NE15G21   30.03R HX 100
6HR MIN TEMP:  96; 6HR MAX TEMP: 102;

MOUNT PLEASANT MOSUNNY   91  69  48 NE13G18   30.03R HX  95
6HR MIN TEMP:  91; 6HR MAX TEMP: 102;

GILMER         HVY RAIN  85  72  64 N12G28    30.01R HX  91
6HR MIN TEMP:  85; 6HR MAX TEMP:  99;

MINEOLA        MOSUNNY  100  59  25 NW3       29.99S HX 100
TYLER          SUNNY    100  67  33 NE7       29.99R HX 105
6HR MIN TEMP:  98; 6HR MAX TEMP: 104;

LONGVIEW       MOSUNNY   94  71  47 E7        29.98R HX 101
6HR MIN TEMP:  94; 6HR MAX TEMP: 104;

MARSHALL       PTSUNNY   90  73  56 NE12G22   30.04R HX  97
6HR MIN TEMP:  90; 6HR MAX TEMP: 103;

ATHENS         SUNNY     99  64  32 N8        29.97S HX 101
PALESTINE      MOSUNNY   99  66  34 N3        29.98S HX 102
JACKSONVILLE   SUNNY     99  61  28 N5        30.01S HX  99
HENDERSON      MOSUNNY   97  67  37 NE12      29.99S HX 101
6HR MIN TEMP:  95; 6HR MAX TEMP: 100;

CENTER         LGT RAIN  85  75  73 W3        30.00R HX  93
6HR MIN TEMP:  85; 6HR MAX TEMP: 103; 6HR PCP:  0.07;

NACOGDOCHES    PTSUNNY   90  73  58 S13       29.97R HX  98
6HR MIN TEMP:  90; 6HR MAX TEMP: 102;

LUFKIN         PTSUNNY   90  72  55 S14       29.98R HX  97
6HR MIN TEMP:  90; 6HR MAX TEMP: 102;

$$

SUPPLEMENTAL OBSERVATIONS (CENTRAL)

CITY           SKY/WX    TMP DP  RH WIND       PRES   REMARKS
LAKE TEXOMA      N/A     97  68  38 N3          N/A  HX 101
CADDO GRASSLND   N/A     91  68  46 NE7G15      N/A  HX  95
PAT MAYSE LAKE   N/A     88  72  58 N9          N/A  HX  94
GREENVILLE       N/A     99  63  30 NE10        N/A  HX 100
CEDAR HILL       N/A    100  63  28 E1          N/A  HX 102
ATHENS           N/A    100  66  32 NE2         N/A  HX 104
LAKE LIMESTONE   N/A     99  64  32 NE5         N/A  HX 101
MCGREGOR         N/A    100  61  27 E7          N/A  HX 101
TEMPLE           N/A     99  63  30 SE6         N/A  HX 100



USA.gov is the U.S. government's official web portal to all federal, state and local government web resources and services.